This is the latest recevied weather packets stored in our database for station/object K5GTX. If no packets are shown the sender has not sent any weather packets the latest 1 day(s).
| Time | Temp. | Humidity | Pressure | Rain* | Wind** | Luminosity | Snow |
|---|---|---|---|---|---|---|---|
| 1778045132 | 16.11° C | 99% | 1016.2 hPa | 0 mm | 2.68 m/s, 43° | 0 W/m² | - |
| 1778044830 | 16.11° C | 99% | 1016.3 hPa | 0 mm | 1.79 m/s, 2° | 0 W/m² | - |
| 1778044526 | 16.11° C | 99% | 1016.4 hPa | 0 mm | 1.79 m/s, 0° | 0 W/m² | - |
| 1778044223 | 16.67° C | 99% | 1016.3 hPa | 0 mm | 0 m/s | 0 W/m² | - |
| 1778043921 | 16.67° C | 99% | 1016.2 hPa | 0 mm | 2.24 m/s, 49° | 0 W/m² | - |
| 1778043619 | 16.67° C | 99% | 1016.2 hPa | 0 mm | 1.34 m/s, 82° | 0 W/m² | - |
| 1778043314 | 16.67° C | 99% | 1016.2 hPa | 0 mm | 0.89 m/s, 48° | 0 W/m² | - |
| 1778043011 | 16.67° C | 99% | 1016 hPa | 0 mm | 1.34 m/s, 64° | 0 W/m² | - |
| 1778042710 | 16.67° C | 99% | 1016.2 hPa | 0 mm | 1.79 m/s, 312° | 0 W/m² | - |
| 1778042406 | 17.22° C | 99% | 1016.2 hPa | 0 mm | 2.68 m/s, 5° | 0 W/m² | - |
| 1778042103 | 17.22° C | 99% | 1015.8 hPa | 0 mm | 2.24 m/s, 24° | 0 W/m² | - |
| 1778041801 | 17.22° C | 99% | 1016 hPa | 0 mm | 2.24 m/s, 9° | 0 W/m² | - |
| 1778041501 | 17.22° C | 99% | 1015.8 hPa | 0 mm | 2.68 m/s, 28° | 0 W/m² | - |
| 1778041198 | 17.22° C | 99% | 1016.1 hPa | 0 mm | 1.34 m/s, 357° | 0 W/m² | - |
| 1778040896 | 17.22° C | 99% | 1015.9 hPa | 0 mm | 3.58 m/s, 48° | 0 W/m² | - |
| 1778040593 | 17.22° C | 99% | 1015.5 hPa | 0 mm | 2.24 m/s, 33° | 0 W/m² | - |
| 1778040291 | 17.78° C | 99% | 1015.6 hPa | 0 mm | 1.34 m/s, 97° | 0 W/m² | - |
| 1778039986 | 17.78° C | 99% | 1015.5 hPa | 0 mm | 1.79 m/s, 19° | 0 W/m² | - |
| 1778039683 | 17.78° C | 99% | 1015.6 hPa | 0 mm | 4.02 m/s, 36° | 0 W/m² | - |
| 1778039380 | 18.33° C | 99% | 1015.5 hPa | 0 mm | 2.68 m/s, 29° | 0 W/m² | - |
| 1778039077 | 18.33° C | 99% | 1015.3 hPa | 0 mm | 1.79 m/s, 50° | 0 W/m² | - |
| 1778038774 | 18.89° C | 99% | 1015.2 hPa | 0 mm | 2.68 m/s, 12° | 0 W/m² | - |
| 1778038472 | 18.89° C | 99% | 1015.4 hPa | 0 mm | 4.02 m/s, 26° | 0 W/m² | - |
| 1778038168 | 18.89° C | 99% | 1015.2 hPa | 0 mm | 3.13 m/s, 83° | 0 W/m² | - |
| 1778037866 | 18.89° C | 99% | 1014.7 hPa | 0 mm | 1.34 m/s, 0° | 0 W/m² | - |
* Rain latest hour (hover to see other rain measurements)
** Current wind speed in m/s (hover to see current wind gust speed)